Satellite-Ground Cal/Val Site Overpasses Predictions

Prediction of Satellite NPP Overpassing Cal/Val Site: Antarctic Dome C

Ground Cal/Val Site Location: Latitude: -75.10, Longitude: 123.35; Satellite-Ground Site NADIR distance within 100 km.

Table of predicted overpasses for the next 14.0 days since TLE Epoch: 4/5/2025
Interval Starting Time Ending Time Minimum Distance Time Minimum Distance (km)
1 04/06/2025 07:32:02 04/06/2025 07:32:31 04/06/2025 07:32:16 4.84
2 04/09/2025 14:55:35 04/09/2025 14:56:04 04/09/2025 14:55:49 22.92
3 04/10/2025 14:36:55 04/10/2025 14:37:10 04/10/2025 14:37:03 84.02
4 04/11/2025 07:38:28 04/11/2025 07:38:56 04/11/2025 07:38:42 32.41
5 04/12/2025 07:19:46 04/12/2025 07:20:04 04/12/2025 07:19:55 77.55
6 04/14/2025 15:02:04 04/14/2025 15:02:28 04/14/2025 15:02:16 60.44
7 04/15/2025 14:43:15 04/15/2025 14:43:40 04/15/2025 14:43:28 48.56
8 04/16/2025 07:44:58 04/16/2025 07:45:19 04/16/2025 07:45:08 68.20
